sat.trackr.live / text

‹ back to catalog

STARLINK-34815

NORAD 65099 · 2025-167X

PAYLOAD ACTIVE UNKNOWN

§ Identity

Operator
Country
US
Launch date
2025-08-04
Launch site
AFETR
Launch vehicle
Mass (kg)
RCS (m²)

Purposes: comms

External: N2YO · Heavens-Above · Gunter

§ Orbital elements

Epoch: 2026-09-20T12:51:44.458272Z

Period
93.85 min
Inclination
53.1591°
Eccentricity
0.0001739
Mean motion
15.34408412 rev/d
Perigee alt
461.5 km
Apogee alt
463.9 km
Semi-major
6,840.8 km
B*
5.6376e-4
RAAN
197.2191°
Arg perigee
77.4009°
Mean anomaly
282.7188°
Rev number
6,337

§ Raw data

STARLINK-348151 65099U 25167X   26263.53593123  .00018724  00000+0  56376-3 0  99912 65099  53.1591 197.2191 0001739  77.4009 282.7188 15.34408412 63379

JSON: /api/v1/satellites/65099 · /tle

For live sub-satellite position, see the globe view (requires WebGL).

§ Visibility from observer

Set your observer location to see the next 7 days of passes ≥ 10°. The values pass through the URL so the page stays shareable.

No JS? Fill the form by hand. The geolocation button needs JavaScript.